Tracking 25656 objects as of 21-May-2022
HD Live streaming from Space Station
objects crossing your sky now

SL-14 R/B

Track SL-14 R/B now!
10-day predictions


NORAD ID: 18215
Int'l Code: 1987-062B
Perigee: 612.2 km
Apogee: 639.4 km
Inclination: 82.5 °
Period: 97.1 minutes
Semi major axis: 6996 km
RCS: 4.3492 m2 (large)
Launch date: July 16, 1987
Source: Commonwealth of Independent States (former USSR) (CIS)
Launch site: PLESETSK MISSILE AND SPACE COMPLEX (PKMTR)

Note: This is a ROCKET BODY
aabbcc
Your satellite tracking list
Your tracking list is empty




NASA's NSSDC Master Catalog

Two Line Element Set (TLE):
1 18215U 87062B   22141.12666317  .00000534  00000-0  62130-4 0  9990
2 18215  82.5150  37.3630 0019407 321.1941 200.2046 14.83389568882629
Source of the keplerian elements: AFSPC